Wind_Speed
28 27 25 23 21 22 21 21 22 21 20 20 20 20 20 20 19 19 16 14 11 10 8 7 4 1 2 4 8 8 14 15 13 5 7 9 10 18 8 3 9 9 10 10 9
29 29 29 26 24 22 21 21 22 21 20 20 21 21 20 21 19 19 17 12 10 9 7 5 2 3 7 6 7 10 16 15 7 12 10 9 14 17 16 4 12 14 9 11 16
29 29 29 28 27 25 22 22 23 22 21 20 19 20 21 20 18 19 10 7 9 8 8 6 7 9 9 9 11 11 16 11 8 11 13 12 19 17 8 6 18 14 15 14 19
28 27 27 27 27 26 25 23 26 25 24 22 20 20 20 19 7 18 11 11 10 8 7 5 6 7 9 10 8 11 11 12 13 16 15 12 13 11 13 9 12 9 13 18 23
27 27 26 25 25 26 26 26 26 27 26 25 24 24 21 22 17 23 15 13 12 8 7 6 7 6 12 11 11 12 13 14 13 14 11 11 11 8 8 8 8 11 16 12 10
30 28 26 24 24 24 25 27 27 27 27 26 27 26 25 24 19 22 16 13 12 9 9 8 7 10 17 11 13 11 13 15 11 12 11 9 14 5 7 15 13 15 13 22 8
32 31 29 26 25 23 23 25 27 26 27 27 27 29 28 19 21 21 17 12 12 11 9 8 10 12 9 13 14 16 17 15 15 10 10 15 15 23 2 8 10 14 18 23 13
34 32 30 29 27 25 24 23 24 25 24 26 28 30 31 21 20 20 17 15 13 13 14 14 17 14 13 12 15 16 17 19 17 13 13 13 11 4 6 5 11 13 8 20 16
36 35 33 30 28 26 24 24 24 24 22 24 26 26 28 23 21 19 20 15 15 15 15 15 14 14 11 15 16 18 22 17 11 6 12 11 9 7 7 10 13 5 9 5 8
39 37 36 32 30 28 25 23 23 23 24 21 22 20 13 16 12 20 19 17 16 17 15 14 12 13 14 14 22 9 17 14 10 11 11 18 6 3 14 14 9 5 3 4 6
41 40 39 35 32 30 26 22 21 19 25 24 12 16 10 9 14 15 16 22 17 18 19 15 15 19 17 18 19 17 14 22 5 1 10 15 11 1 16 13 11 3 0 2 5
40 41 41 38 35 31 27 24 17 26 32 28 23 25 17 12 15 14 19 25 24 25 19 17 26 17 18 19 19 18 18 19 9 7 7 10 13 13 19 16 9 3 4 6 9
35 39 40 41 37 31 31 26 25 26 33 39 34 31 23 23 22 16 23 27 25 24 24 24 18 16 22 18 16 18 19 18 13 10 10 11 14 7 8 13 12 9 6 11 10
32 34 37 37 34 36 29 25 24 21 23 32 30 32 32 26 29 21 25 28 25 27 25 25 21 20 15 18 16 19 17 17 12 14 14 8 16 9 20 13 15 15 14 16 18
33 32 33 33 35 30 25 29 19 14 8 9 11 25 16 33 17 29 28 29 31 27 22 28 23 20 19 18 17 16 10 17 13 17 20 18 11 10 14 17 21 16 18 20 17
36 31 34 31 31 24 27 23 20 10 13 7 14 19 21 21 34 13 26 34 30 28 27 25 22 21 21 17 17 14 9 12 14 16 16 20 17 13 6 10 15 19 18 21 23
37 34 34 32 26 23 23 22 16 23 14 19 15 13 15 16 27 31 29 37 38 35 35 28 27 24 19 20 19 17 15 14 12 13 10 20 16 14 8 6 6 14 14 23 20
33 30 33 33 26 24 26 28 24 33 37 5 8 21 18 15 19 27 29 38 37 33 29 30 25 27 22 24 21 18 21 15 4 3 10 10 6 12 12 8 7 9 10 11 21
26 28 30 34 29 26 33 38 50 41 19 41 10 16 19 18 18 25 31 36 40 41 35 29 33 21 26 23 23 20 24 23 8 7 8 19 9 11 11 7 6 6 8 12 14
27 28 32 27 28 30 33 40 49 37 38 27 37 24 17 21 21 22 33 29 35 37 38 33 18 26 27 27 23 26 18 19 14 5 6 10 14 5 8 9 6 5 4 4 9
28 31 36 26 28 35 44 50 57 48 34 38 33 29 33 21 25 26 25 32 28 34 37 34 24 20 23 33 26 22 24 17 20 23 6 4 7 6 10 11 5 5 9 6 3
36 41 38 28 37 47 50 51 47 38 42 45 35 33 28 32 29 19 28 26 27 31 43 40 25 30 26 23 23 27 26 27 24 13 11 6 13 14 7 9 11 11 12 9 9
45 43 35 34 47 51 52 49 46 40 42 40 40 33 26 30 28 33 28 26 25 28 41 40 41 19 27 28 26 27 30 24 28 23 22 11 15 2 5 7 11 9 12 14 14
51 47 47 41 46 50 54 57 48 42 41 41 39 32 27 26 25 20 19 22 23 24 32 31 36 39 26 24 23 25 26 25 26 24 20 28 18 17 17 11 13 13 15 17 12
60 47 56 56 58 56 44 36 43 35 41 38 43 42 38 32 28 26 19 14 23 15 27 32 34 39 38 31 29 28 27 28 29 34 27 24 24 22 22 24 17 14 9 12 14
66 56 56 42 49 48 47 49 42 29 36 48 48 45 34 41 27 24 27 25 17 25 21 33 29 30 37 33 34 35 30 32 29 29 31 29 30 25 22 21 24 19 14 15 20
68 65 38 59 38 46 55 55 52 34 28 38 48 42 45 35 36 29 26 20 24 12 26 28 27 31 30 32 27 40 39 30 28 30 25 28 25 22 23 21 17 16 23 23 22
Wind_Direction
270 270 271 271 270 270 268 271 271 272 274 275 280 284 290 294 302 304 305 298 294 296 305 302 290 306 317 293 271 263 270 274 296 295 350 344 304 283 231 266 275 293 307 298 270
269 270 271 271 271 271 275 274 274 272 273 276 278 282 288 294 303 296 302 290 287 293 294 283 263 286 260 275 269 268 267 306 308 297 316 309 324 311 316 274 279 287 274 301 280
269 269 270 271 271 271 271 274 275 274 273 272 274 280 288 295 312 299 309 284 284 289 277 268 226 246 264 259 265 260 269 307 288 318 302 305 292 295 321 297 283 308 318 313 295
271 271 271 270 271 271 271 268 272 274 276 275 275 275 281 286 281 279 286 284 282 277 265 243 207 238 258 261 258 273 264 282 287 298 303 302 323 312 312 311 312 304 318 299 312
272 273 272 274 274 273 271 269 267 269 271 274 274 274 272 274 276 269 282 274 269 265 248 203 215 240 268 284 269 268 274 282 287 289 297 292 313 303 271 350 350 318 318 312 310
271 271 273 273 273 273 272 272 269 269 268 269 272 272 271 268 266 279 275 266 255 246 231 204 224 265 269 281 264 281 280 280 272 271 282 286 275 257 66 332 331 324 339 339 300
268 270 272 274 273 274 273 272 273 270 269 269 269 270 264 269 263 270 270 254 241 238 216 231 233 251 246 276 273 268 278 276 262 284 263 252 279 288 293 338 336 329 2 10 232
265 266 268 271 274 277 277 277 276 273 272 270 268 267 265 267 253 255 261 247 231 234 218 208 235 246 243 260 281 268 269 269 263 268 262 254 275 170 214 177 265 326 357 58 92
259 261 263 264 267 272 275 280 282 280 275 272 268 269 274 263 253 249 246 241 227 230 229 224 242 241 253 261 277 259 259 248 267 317 239 259 214 187 189 205 231 319 333 126 109
257 256 255 257 261 265 269 274 280 280 277 270 269 271 272 271 253 233 234 216 225 225 226 226 237 245 246 244 251 271 267 291 265 280 238 227 236 351 162 211 186 191 325 92 116
258 254 253 251 253 258 263 271 284 299 266 258 249 240 220 291 256 234 226 210 204 220 219 224 228 233 238 245 257 270 284 267 264 12 210 268 214 287 165 215 184 210 187 156 148
262 259 254 250 247 250 255 259 262 267 266 261 245 253 230 218 242 232 215 208 208 215 216 219 231 238 247 253 261 265 266 276 266 235 247 277 278 205 189 205 235 247 232 190 200
264 262 259 251 246 246 247 252 253 270 280 262 254 253 248 242 241 215 211 210 210 217 218 222 234 241 237 249 253 251 251 259 307 271 276 276 274 236 213 190 205 231 224 208 215
264 267 264 259 248 240 245 247 253 268 290 275 263 258 244 229 245 217 214 211 214 224 223 231 239 246 243 246 239 240 241 260 260 276 269 276 278 229 185 199 203 209 218 203 208
257 258 262 261 252 236 227 228 226 243 283 273 241 224 230 217 227 226 194 215 217 218 219 232 235 236 240 237 223 237 258 263 278 262 277 268 248 279 204 212 205 221 214 214 214
255 252 253 257 251 236 228 223 226 207 241 238 223 217 230 218 220 202 215 209 218 224 227 234 235 236 238 231 230 235 232 241 258 256 265 264 252 242 211 257 224 209 220 218 214
258 249 248 248 252 213 207 215 203 223 224 235 221 218 221 219 216 218 212 205 208 217 227 228 235 232 227 223 224 228 239 244 240 240 243 251 252 250 198 160 211 200 221 229 235
258 251 244 240 236 219 190 192 219 233 218 164 265 223 227 214 227 215 212 211 214 212 220 224 226 225 221 227 218 222 225 233 179 311 304 311 250 244 222 179 193 213 225 232 230
248 240 241 234 222 198 193 205 220 222 224 226 230 223 235 229 220 217 216 217 214 209 216 224 233 230 224 223 224 222 221 237 147 214 265 244 244 235 196 210 214 208 222 237 237
236 236 241 230 209 200 207 219 232 227 229 235 235 242 248 232 221 222 215 223 218 219 212 226 236 237 220 218 225 233 235 240 208 202 222 258 258 305 158 227 202 231 201 224 226
226 225 238 216 196 201 209 223 235 226 230 239 249 257 240 246 223 224 227 226 220 217 218 224 227 255 230 206 214 219 233 233 254 240 246 267 281 276 205 156 233 201 230 220 229
218 219 230 216 201 207 218 227 233 235 216 232 242 253 253 247 255 243 240 233 225 221 218 218 225 246 232 221 218 233 229 228 246 225 254 242 257 173 262 278 237 221 230 221 214
214 217 216 220 209 212 224 231 233 231 222 224 232 237 250 251 264 257 250 240 229 223 218 212 222 221 246 228 221 229 236 232 234 241 231 182 242 216 276 244 238 236 208 230 246
208 207 213 221 228 226 224 234 234 232 232 224 229 233 238 246 250 265 255 240 236 227 223 218 215 220 234 231 227 230 229 223 236 249 253 262 259 253 270 238 241 253 243 216 232
209 208 208 209 219 221 220 229 234 232 229 218 228 232 233 243 249 253 247 250 245 201 219 219 217 221 235 238 235 227 230 234 227 229 229 236 249 258 258 264 264 258 216 202 216
210 207 211 214 221 215 215 225 228 234 219 218 218 220 228 234 243 262 270 260 251 235 223 218 225 221 242 246 237 257 242 237 236 241 245 250 253 252 260 259 268 260 246 253 248
215 214 215 218 223 215 218 225 226 221 229 226 213 217 229 231 234 249 246 239 233 217 234 215 211 224 239 237 241 255 247 242 238 239 249 253 260 258 253 264 268 250 243 249 251
Height
3129 3129 3129 3129 3128 3129 3129 3130 3130 3130 3130 3131 3130 3130 3130 3129 3127 3125 3124 3124 3122 3121 3120 3120 3120 3119 3119 3119 3121 3121 3119 3114 3110 3108 3108 3108 3103 3103 3109 3110 3100 3102 3102 3101 3104
3124 3125 3125 3124 3125 3125 3126 3126 3126 3125 3125 3126 3126 3126 3126 3125 3124 3122 3122 3120 3120 3120 3118 3119 3119 3119 3120 3121 3122 3121 3117 3113 3111 3109 3108 3110 3107 3100 3102 3107 3098 3100 3096 3097 3100
3119 3119 3120 3120 3121 3121 3121 3121 3121 3121 3121 3121 3121 3122 3123 3121 3122 3118 3119 3118 3118 3118 3117 3117 3119 3121 3120 3120 3120 3118 3116 3114 3112 3108 3107 3110 3105 3094 3100 3100 3095 3099 3097 3092 3095
3114 3113 3114 3115 3116 3117 3116 3116 3117 3116 3117 3117 3117 3117 3119 3119 3123 3114 3116 3116 3116 3116 3116 3117 3118 3119 3119 3119 3118 3117 3115 3113 3111 3108 3106 3108 3107 3101 3096 3103 3096 3096 3096 3091 3089
3108 3109 3109 3110 3111 3112 3111 3112 3111 3110 3112 3113 3112 3112 3114 3114 3116 3112 3114 3113 3114 3114 3115 3115 3117 3120 3118 3118 3117 3115 3113 3111 3110 3108 3107 3108 3109 3108 3104 3100 3097 3097 3094 3090 3089
3103 3103 3104 3104 3106 3106 3106 3107 3105 3105 3107 3107 3107 3107 3107 3109 3110 3108 3110 3110 3111 3112 3113 3115 3117 3119 3116 3116 3115 3114 3111 3109 3108 3107 3108 3109 3103 3105 3091 3099 3095 3093 3089 3086 3085
3097 3098 3099 3100 3100 3100 3101 3101 3102 3101 3101 3101 3101 3100 3101 3105 3105 3106 3107 3107 3108 3110 3111 3113 3115 3115 3115 3114 3113 3112 3110 3107 3106 3106 3105 3102 3107 3102 3102 3100 3095 3095 3092 3084 3083
3090 3091 3092 3095 3095 3096 3097 3096 3096 3096 3096 3096 3095 3094 3092 3098 3100 3100 3103 3104 3105 3107 3108 3111 3110 3110 3111 3111 3110 3109 3107 3103 3101 3103 3099 3100 3100 3102 3103 3098 3097 3095 3092 3091 3088
3082 3084 3086 3088 3090 3091 3092 3092 3092 3092 3091 3091 3090 3090 3089 3091 3093 3096 3098 3100 3102 3104 3105 3106 3107 3108 3110 3110 3109 3106 3101 3098 3100 3099 3099 3099 3100 3100 3103 3106 3101 3094 3093 3093 3093
3073 3075 3078 3081 3083 3086 3088 3088 3088 3088 3087 3086 3086 3089 3089 3087 3087 3089 3094 3097 3100 3101 3102 3104 3105 3106 3107 3107 3104 3102 3101 3099 3098 3098 3098 3093 3098 3097 3098 3103 3101 3097 3094 3094 3093
3064 3066 3069 3073 3076 3079 3084 3085 3088 3084 3081 3081 3081 3080 3082 3085 3084 3087 3089 3093 3097 3099 3098 3101 3104 3103 3103 3102 3101 3100 3100 3096 3095 3096 3096 3094 3087 3093 3094 3097 3098 3095 3095 3095 3095
3054 3056 3059 3064 3069 3073 3077 3080 3083 3079 3073 3074 3074 3074 3078 3081 3082 3083 3086 3089 3093 3093 3097 3100 3097 3099 3100 3099 3098 3097 3096 3094 3093 3093 3095 3093 3093 3091 3094 3094 3094 3094 3094 3095 3095
3047 3048 3050 3056 3062 3068 3069 3077 3075 3075 3067 3064 3067 3068 3073 3076 3076 3080 3083 3084 3088 3091 3093 3093 3093 3096 3096 3095 3095 3096 3094 3093 3093 3094 3093 3092 3091 3092 3094 3095 3095 3093 3093 3094 3095
3039 3041 3043 3047 3059 3058 3067 3071 3071 3073 3065 3058 3058 3057 3063 3068 3066 3074 3079 3082 3086 3086 3090 3090 3092 3092 3093 3092 3093 3093 3093 3092 3094 3093 3090 3091 3087 3086 3088 3091 3092 3094 3093 3095 3097
3031 3034 3037 3040 3044 3055 3059 3058 3066 3072 3069 3054 3052 3050 3055 3057 3063 3065 3071 3077 3078 3081 3086 3085 3088 3089 3089 3089 3090 3091 3090 3091 3091 3090 3089 3086 3086 3080 3084 3086 3087 3088 3091 3093 3095
3021 3026 3029 3034 3038 3050 3053 3058 3067 3073 3051 3047 3046 3047 3051 3053 3057 3065 3066 3072 3076 3079 3080 3081 3084 3085 3086 3087 3088 3089 3089 3091 3090 3088 3086 3083 3083 3082 3082 3084 3085 3085 3088 3091 3093
3012 3018 3021 3026 3035 3041 3045 3056 3065 3053 3043 3043 3044 3045 3047 3049 3053 3055 3061 3063 3065 3072 3072 3077 3077 3081 3083 3084 3085 3086 3088 3087 3086 3085 3082 3080 3078 3075 3078 3080 3082 3084 3085 3086 3088
3004 3008 3013 3018 3028 3035 3041 3048 3045 3023 3035 3038 3037 3042 3043 3046 3048 3049 3055 3057 3059 3065 3071 3071 3072 3075 3078 3079 3081 3082 3085 3085 3090 3093 3083 3078 3075 3075 3073 3078 3080 3081 3083 3085 3084
2998 3000 3003 3010 3020 3027 3034 3033 3015 3026 3032 3036 3039 3039 3040 3042 3045 3047 3047 3051 3055 3058 3063 3066 3066 3071 3074 3077 3079 3079 3079 3082 3084 3092 3094 3085 3075 3073 3073 3076 3077 3079 3080 3081 3084
2990 2993 2996 3003 3014 3021 3024 3019 3009 3020 3028 3034 3034 3036 3036 3037 3040 3043 3044 3045 3050 3054 3059 3061 3064 3065 3070 3073 3074 3073 3078 3079 3077 3081 3080 3069 3069 3068 3072 3076 3076 3078 3077 3078 3079
2985 2986 2987 3000 3008 3010 3008 3004 3002 3011 3024 3026 3028 3031 3032 3033 3034 3036 3038 3043 3045 3049 3055 3058 3061 3063 3065 3062 3067 3071 3070 3073 3074 3072 3071 3070 3069 3068 3073 3070 3075 3076 3076 3076 3077
2976 2976 2981 2992 2997 2995 2989 2983 2998 3001 3013 3018 3025 3027 3028 3028 3030 3033 3033 3036 3040 3044 3045 3052 3056 3056 3060 3061 3064 3066 3065 3068 3067 3068 3069 3071 3068 3070 3071 3070 3072 3073 3074 3073 3075
2962 2969 2978 2983 2980 2977 2981 2981 2987 2995 3002 3011 3016 3022 3024 3025 3027 3027 3029 3031 3035 3037 3038 3046 3047 3054 3053 3059 3057 3058 3059 3061 3064 3064 3063 3068 3068 3065 3066 3067 3068 3067 3068 3068 3069
2953 2957 2964 2968 2970 2972 2971 2966 2977 2989 2997 3007 3014 3019 3020 3021 3024 3021 3022 3027 3029 3029 3034 3038 3041 3041 3045 3048 3053 3054 3054 3055 3058 3057 3058 3059 3061 3061 3063 3063 3064 3065 3064 3064 3065
2934 2933 2936 2943 2947 2950 2970 2970 2974 2982 2986 2999 3004 3008 3014 3017 3019 3019 3017 3018 3021 3022 3028 3031 3032 3039 3041 3045 3046 3047 3049 3050 3051 3055 3052 3055 3056 3057 3058 3057 3061 3060 3059 3061 3062
2915 2924 2929 2937 2946 2954 2959 2960 2968 2972 2981 2982 2993 2999 3007 3010 3014 3012 3011 3015 3017 3021 3022 3025 3027 3034 3035 3039 3040 3040 3042 3044 3044 3046 3046 3048 3049 3052 3053 3051 3054 3057 3057 3056 3058
2901 2918 2927 2927 2937 2946 2944 2943 2949 2972 2976 2981 2988 2996 3001 3008 3014 3011 3013 3012 3013 3009 3018 3021 3022 3029 3028 3034 3038 3031 3033 3037 3038 3042 3042 3041 3045 3046 3047 3048 3047 3047 3048 3051 3051